EUTE 1-F1 (ECS 1)

Satellite information

Favourite Embed

Satellite Type and Status

PAYLOADIN ORBIT

Key statistics

Satellite EUTE 1-F1 (ECS 1) at a glance.

Uptime

15363

Days in orbit

Revolutions

≈ 1.0

Per day

Orbit

OTHER

Other

Inclination

12.3

Latest

Satellite identification and parameters

Extended collection of information and parameters for EUTE 1-F1 (ECS 1).

Object identification

Identified? True

Debris? False

Object name: EUTE 1-F1 (ECS 1)

International designator: 1983-058A

Object number (NORAD): 14128

Object ID (CCSDS): 14128

Country: EUROPEAN TELECOMMUNICATIONS SATELLITE ORGANIZATION (EUTELSAT) (EUTE)

Current information (Y/N): Y

RCS size: LARGE

Orbital parameters

Period: 1456.47 minutes

Inclination: 12.2765 deg

SMA: 42562.575 km

Apoapsis: 36238.886 km

Periapsis: 36129.994 km

RAAN: 331.9952 deg

Eccentricy: 0.0012792

Argument of periapsis: 162.4873 deg

Mean anomaly: 197.5936 deg

Mean motion: 0.98869176 rev/day

Mean motion (dot): -0.00000082 rev/day2

B* drag term: 0.0 1/REarth

Two-line elements (TLE)

Creation date: July 7, 2025, 10:26 p.m.

Reference frame: TEME

Reference center: EARTH

Epoch: July 7, 2025, 8:12 a.m. UTC

TLE line 0: 0 EUTE 1-F1 (ECS 1)

TLE line 1: 1 14128U 83058A 25188.34227465 -.00000082 00000-0 00000+0 0 9997

TLE line 2: 2 14128 12.2765 331.9952 0012792 162.4873 197.5936 0.98869176114836

Live tracking on map

Real-time ground track for satellite EUTE 1-F1 (ECS 1).

In-orbit conjunctions

A list of the most updated potential collisions computed for object EUTE 1-F1 (ECS 1).

Target Orbit TCA Probability of collision Miss distance Type
EUTE 2-F2 OTHER 2025-01-19 16:34:33 TBA 4454.0 (m) PAYLOAD

Associated space launch

Geostationary communications satellite

EUTE 1-F1 (ECS 1) was lifted into orbit during the mission ‘Ariane 1 | ECS 1’, on board a Ariane 1 space rocket.

The launch took place on June 16, 1983, 11:59 a.m. from Ariane Launch Area 1 (ELV).

For more information about the launch, click the button.

Launch to space Ariane 1 | ECS 1
Ariane 1 | ECS 1

Agency: N/A

Status: Launch Successful

Launch date: June 16, 1983, 11:59 a.m. UTC

Rocket: Ariane 1

Launch pad: Ariane Launch Area 1 (ELV)

Location: Guiana Space Centre, French Guiana

...

Latest news about this satellite

There are no fresh news available about this satellite. Check back as we update our databases every day.


Newsletter sign-up

Weekly statistics, charts and insights to help you stay on top of the space industry.